• Em Portugal
  • Lista de países
  • Para 7 dias
  • Temperatura da água
  • Mapas de satélite
  • Mapa do tempo
  • Widgets de tempo
  • user-avatar
    Iniciar Sessão

    Previsão horária em Misrata

    Hoje, 24 Fevereiro, Sábado

    Tempo Temperatura Precipitação Vento Pressão Humidade
    00:00 +13°C° 0 mm 5 m/s 755 mmHg 38%
    01:00 +12°C° 0 mm 5 m/s 756 mmHg 37%
    02:00 +12°C° 0 mm 5 m/s 756 mmHg 37%
    03:00 +12°C° 0 mm 5 m/s 756 mmHg 37%
    04:00 +10°C° 0 mm 5 m/s 756 mmHg 37%
    05:00 +10°C° 0 mm 5 m/s 756 mmHg 36%
    06:00 +11°C° 0 mm 4 m/s 756 mmHg 36%
    07:00 +11°C° 0 mm 4 m/s 757 mmHg 35%
    08:00 +13°C° 0 mm 4 m/s 757 mmHg 31%
    09:00 +15°C° 0 mm 5 m/s 757 mmHg 27%
    10:00 +16°C° 0 mm 5 m/s 757 mmHg 24%
    11:00 +19°C° 0 mm 5 m/s 757 mmHg 22%
    12:00 +20°C° 0 mm 5 m/s 757 mmHg 20%
    13:00 +21°C° 0 mm 5 m/s 756 mmHg 18%
    14:00 +22°C° 0 mm 5 m/s 756 mmHg 17%
    15:00 +22°C° 0 mm 5 m/s 756 mmHg 17%
    16:00 +23°C° 0 mm 6 m/s 755 mmHg 16%
    17:00 +22°C° 0 mm 6 m/s 755 mmHg 17%
    18:00 +21°C° 0 mm 6 m/s 755 mmHg 18%
    19:00 +20°C° 0 mm 6 m/s 755 mmHg 18%
    20:00 +19°C° 0 mm 6 m/s 755 mmHg 19%
    21:00 +19°C° 0 mm 6 m/s 754 mmHg 19%
    22:00 +18°C° 0 mm 7 m/s 754 mmHg 20%
    23:00 +18°C° 0 mm 7 m/s 754 mmHg 19%

    Amanhã, 25 Fevereiro, Domingo

    Tempo Temperatura Precipitação Vento Pressão Humidade
    00:00 +18°C° 0 mm 7 m/s 754 mmHg 19%
    01:00 +18°C° 0 mm 8 m/s 754 mmHg 19%
    02:00 +18°C° 0 mm 7 m/s 753 mmHg 19%
    03:00 +18°C° 0 mm 7 m/s 753 mmHg 20%
    04:00 +19°C° 0 mm 6 m/s 752 mmHg 21%
    05:00 +17°C° 0,3 mm 6 m/s 752 mmHg 34%
    06:00 +17°C° 0,3 mm 5 m/s 752 mmHg 48%
    07:00 +16°C° 0,3 mm 5 m/s 752 mmHg 62%
    08:00 +17°C° 0,3 mm 6 m/s 752 mmHg 59%
    09:00 +19°C° 0,3 mm 6 m/s 752 mmHg 55%
    10:00 +21°C° 0,3 mm 7 m/s 752 mmHg 52%
    11:00 +23°C° 0 mm 7 m/s 752 mmHg 43%
    12:00 +26°C° 0 mm 7 m/s 752 mmHg 34%
    13:00 +27°C° 0 mm 7 m/s 751 mmHg 25%
    14:00 +27°C° 0 mm 6 m/s 751 mmHg 25%
    15:00 +27°C° 0 mm 6 m/s 751 mmHg 26%
    16:00 +26°C° 0 mm 5 m/s 751 mmHg 26%
    17:00 +24°C° 0 mm 6 m/s 751 mmHg 31%
    18:00 +23°C° 0 mm 7 m/s 751 mmHg 37%
    19:00 +22°C° 0 mm 8 m/s 752 mmHg 42%
    20:00 +20°C° 0 mm 8 m/s 752 mmHg 52%
    21:00 +17°C° 0 mm 9 m/s 753 mmHg 62%
    22:00 +14°C° 0 mm 10 m/s 754 mmHg 72%
    23:00 +15°C° 0 mm 9 m/s 754 mmHg 72%

    Depois de amanhã, 26 Fevereiro, Segunda-feira

    Tempo Temperatura Precipitação Vento Pressão Humidade
    00:00 +13°C° 0 mm 8 m/s 754 mmHg 71%
    01:00 +14°C° 0 mm 7 m/s 755 mmHg 71%
    02:00 +14°C° 0 mm 7 m/s 755 mmHg 73%
    03:00 +13°C° 0 mm 6 m/s 755 mmHg 75%
    04:00 +13°C° 0 mm 6 m/s 754 mmHg 77%
    05:00 +13°C° 0 mm 5 m/s 755 mmHg 78%
    06:00 +12°C° 0 mm 5 m/s 755 mmHg 79%
    07:00 +12°C° 0 mm 5 m/s 755 mmHg 80%
    08:00 +13°C° 0 mm 5 m/s 756 mmHg 72%
    09:00 +14°C° 0 mm 6 m/s 756 mmHg 64%
    10:00 +16°C° 0 mm 6 m/s 757 mmHg 56%
    11:00 +17°C° 0 mm 6 m/s 756 mmHg 49%
    12:00 +19°C° 0 mm 6 m/s 756 mmHg 43%
    13:00 +20°C° 0 mm 6 m/s 756 mmHg 36%
    14:00 +20°C° 0 mm 5 m/s 756 mmHg 33%
    15:00 +21°C° 0 mm 5 m/s 755 mmHg 30%
    16:00 +21°C° 0 mm 5 m/s 755 mmHg 27%
    17:00 +20°C° 0 mm 5 m/s 755 mmHg 34%
    18:00 +19°C° 0 mm 4 m/s 756 mmHg 41%
    19:00 +17°C° 0 mm 4 m/s 756 mmHg 47%
    20:00 +17°C° 0 mm 3 m/s 756 mmHg 53%
    21:00 +16°C° 0 mm 2 m/s 756 mmHg 59%
    22:00 +15°C° 0 mm 2 m/s 756 mmHg 64%
    23:00 +14°C° 0 mm 3 m/s 756 mmHg 67%

    27 Fevereiro, Terça-feira

    Tempo Temperatura Precipitação Vento Pressão Humidade
    00:00 +14°C° 0 mm 4 m/s 756 mmHg 69%
    01:00 +14°C° 0 mm 5 m/s 755 mmHg 72%
    02:00 +13°C° 0 mm 6 m/s 755 mmHg 68%
    03:00 +13°C° 0 mm 6 m/s 754 mmHg 63%
    04:00 +13°C° 0 mm 6 m/s 754 mmHg 59%
    05:00 +12°C° 0 mm 7 m/s 753 mmHg 50%
    06:00 +14°C° 0 mm 7 m/s 753 mmHg 41%
    07:00 +14°C° 0 mm 7 m/s 753 mmHg 32%
    08:00 +16°C° 0 mm 8 m/s 753 mmHg 28%
    09:00 +19°C° 0 mm 9 m/s 753 mmHg 24%
    10:00 +22°C° 0 mm 9 m/s 753 mmHg 20%
    11:00 +24°C° 0 mm 9 m/s 752 mmHg 19%
    12:00 +27°C° 0 mm 9 m/s 751 mmHg 19%
    13:00 +29°C° 0 mm 9 m/s 750 mmHg 18%
    14:00 +31°C° 0 mm 8 m/s 750 mmHg 17%
    15:00 +31°C° 0 mm 8 m/s 749 mmHg 17%
    16:00 +30°C° 0 mm 7 m/s 749 mmHg 16%
    17:00 +29°C° 0 mm 7 m/s 749 mmHg 19%
    18:00 +27°C° 0 mm 6 m/s 749 mmHg 22%
    19:00 +26°C° 0 mm 5 m/s 749 mmHg 24%
    20:00 +25°C° 0 mm 5 m/s 750 mmHg 27%
    21:00 +23°C° 0 mm 4 m/s 750 mmHg 30%
    22:00 +22°C° 0 mm 3 m/s 750 mmHg 33%
    23:00 +21°C° 0 mm 5 m/s 751 mmHg 39%

    28 Fevereiro, Quarta-feira

    Tempo Temperatura Precipitação Vento Pressão Humidade
    00:00 +20°C° 0 mm 7 m/s 752 mmHg 46%
    01:00 +18°C° 0 mm 9 m/s 752 mmHg 53%
    02:00 +17°C° 0 mm 10 m/s 753 mmHg 60%
    03:00 +16°C° 0 mm 11 m/s 753 mmHg 66%
    04:00 +14°C° 0 mm 11 m/s 754 mmHg 73%
    05:00 +14°C° 0 mm 10 m/s 755 mmHg 73%
    06:00 +14°C° 0 mm 10 m/s 756 mmHg 74%
    07:00 +13°C° 0 mm 9 m/s 757 mmHg 74%
    08:00 +15°C° 0 mm 8 m/s 758 mmHg 69%
    09:00 +16°C° 0 mm 8 m/s 758 mmHg 64%
    10:00 +17°C° 0 mm 7 m/s 759 mmHg 58%
    11:00 +18°C° 0 mm 7 m/s 759 mmHg 52%
    12:00 +20°C° 0 mm 6 m/s 759 mmHg 46%
    13:00 +21°C° 0 mm 6 m/s 759 mmHg 39%
    14:00 +21°C° 0 mm 5 m/s 759 mmHg 40%
    15:00 +21°C° 0 mm 5 m/s 759 mmHg 40%
    16:00 +21°C° 0 mm 4 m/s 759 mmHg 40%
    17:00 +20°C° 0 mm 4 m/s 760 mmHg 46%
    18:00 +19°C° 0 mm 4 m/s 760 mmHg 52%
    19:00 +18°C° 0 mm 3 m/s 761 mmHg 58%
    20:00 +17°C° 0 mm 4 m/s 761 mmHg 62%
    21:00 +17°C° 0 mm 4 m/s 761 mmHg 67%
    22:00 +15°C° 0 mm 4 m/s 762 mmHg 71%
    23:00 +15°C° 0 mm 4 m/s 762 mmHg 74%

    1 Março, Quinta-feira

    Tempo Temperatura Precipitação Vento Pressão Humidade
    00:00 +15°C° 0 mm 4 m/s 761 mmHg 77%
    01:00 +14°C° 0 mm 5 m/s 761 mmHg 80%
    02:00 +14°C° 0 mm 5 m/s 761 mmHg 80%
    03:00 +14°C° 0 mm 5 m/s 761 mmHg 81%
    04:00 +13°C° 0 mm 5 m/s 761 mmHg 82%
    05:00 +13°C° 0 mm 5 m/s 761 mmHg 81%
    06:00 +13°C° 0 mm 6 m/s 761 mmHg 79%
    07:00 +13°C° 0 mm 6 m/s 761 mmHg 78%
    08:00 +15°C° 0 mm 6 m/s 761 mmHg 68%
    09:00 +17°C° 0 mm 7 m/s 761 mmHg 58%
    10:00 +20°C° 0 mm 7 m/s 761 mmHg 48%
    11:00 +22°C° 0 mm 7 m/s 760 mmHg 41%
    12:00 +23°C° 0 mm 7 m/s 760 mmHg 34%
    13:00 +26°C° 0 mm 7 m/s 759 mmHg 27%
    14:00 +27°C° 0 mm 7 m/s 758 mmHg 25%
    15:00 +27°C° 0 mm 7 m/s 758 mmHg 24%
    16:00 +28°C° 0 mm 7 m/s 757 mmHg 22%
    17:00 +26°C° 0 mm 8 m/s 757 mmHg 26%
    18:00 +24°C° 0 mm 8 m/s 757 mmHg 31%
    19:00 +22°C° 0 mm 9 m/s 757 mmHg 35%
    20:00 +22°C° 0 mm 9 m/s 757 mmHg 36%
    21:00 +21°C° 0 mm 9 m/s 757 mmHg 37%
    22:00 +21°C° 0 mm 9 m/s 757 mmHg 38%
    23:00 +19°C° 0 mm 9 m/s 756 mmHg 36%
    Mostrar mais